Location: ČR
(50.0000°N, 15.0000°E)
Time: 11:43:40
(UTC+00:00)

ISS - Pass Details

Date: 27 September 2021
Orbit: 417 x 423 km, 51.6° (Epoch: 16 October)

Event Time Altitude Azimuth Distance (km) Brightness Sun altitude
Rises 19:44:25 0° 288° (WNW) 2,367 1.2 -27.9°
Reaches altitude 10° 19:46:33 10° 282° (WNW) 1,502 -0.1 -28.2°
Enters shadow 19:47:27 17° 277° (W) 1,153 -0.9 -28.3°
